| time (UTC) | temp C | wind direction | speed KPH | gust KPH | rain 1hr cm | rain 24hr cm | rain mn cm | humidity % | barometer mb |
| 20260504100500 | 11 | 225 | 32.2 | 33.8 | 0.00 | 0.00 | 0.00 | 52 | 1006.4 |
| 20260504082002 | 12 | 225 | 37.0 | 41.8 | 0.00 | 0.00 | 0.00 | 49 | 1007.0 |
| 20260504081502 | 12 | 225 | 38.6 | 41.8 | 0.00 | 0.00 | 0.00 | 48 | 1007.1 |
| 20260504081001 | 12 | 225 | 35.4 | 41.8 | 0.00 | 0.00 | 0.00 | 47 | 1007.1 |
| 20260504080500 | 12 | 225 | 33.8 | 37.0 | 0.00 | 0.00 | 0.00 | 49 | 1007.1 |
| 20260504050001 | 11 | 191 | 38.6 | 40.2 | 0.00 | 0.00 | 0.00 | 48 | 1009.4 |
| 20260504045502 | 11 | 182 | 38.6 | 43.5 | 0.00 | 0.00 | 0.00 | 48 | 1009.6 |
| 20260504045001 | 11 | 185 | 40.2 | 45.1 | 0.00 | 0.00 | 0.00 | 48 | 1009.5 |
| 20260504044501 | 11 | 192 | 40.2 | 45.1 | 0.00 | 0.00 | 0.00 | 48 | 1009.7 |
| 20260504044000 | 11 | 193 | 40.2 | 43.5 | 0.00 | 0.00 | 0.00 | 48 | 1009.6 |
| 20260504043501 | 11 | 189 | 40.2 | 43.5 | 0.00 | 0.00 | 0.00 | 48 | 1009.6 |
| 20260504043001 | 11 | 184 | 40.2 | 43.5 | 0.00 | 0.00 | 0.00 | 48 | 1009.7 |
| 20260504042501 | 11 | 186 | 38.6 | 40.2 | 0.00 | 0.00 | 0.00 | 49 | 1009.7 |
| 20260504042001 | 11 | 194 | 38.6 | 38.6 | 0.00 | 0.00 | 0.00 | 49 | 1009.8 |
| 20260504041500 | 11 | 199 | 40.2 | 43.5 | 0.00 | 0.00 | 0.00 | 48 | 1009.9 |
| 20260504041000 | 11 | 191 | 41.8 | 43.5 | 0.00 | 0.00 | 0.00 | 48 | 1009.9 |
| 20260504040501 | 11 | 182 | 40.2 | 43.5 | 0.00 | 0.00 | 0.00 | 49 | 1009.9 |
| 20260504040001 | 11 | 190 | 37.0 | 43.5 | 0.00 | 0.00 | 0.00 | 49 | 1010.0 |
| 20260504035500 | 11 | 200 | 35.4 | 40.2 | 0.00 | 0.00 | 0.00 | 50 | 1010.0 |
| 20260504035001 | 11 | 200 | 33.8 | 37.0 | 0.00 | 0.00 | 0.00 | 51 | 1010.1 |
| 20260504034501 | 11 | 198 | 33.8 | 35.4 | 0.00 | 0.00 | 0.00 | 51 | 1010.2 |
| 20260504034000 | 11 | 195 | 33.8 | 37.0 | 0.00 | 0.00 | 0.00 | 51 | 1010.3 |
| 20260504032501 | 11 | 192 | 32.2 | 35.4 | 0.00 | 0.00 | 0.00 | 52 | 1010.4 |
| 20260504032001 | 11 | 189 | 32.2 | 35.4 | 0.00 | 0.00 | 0.00 | 51 | 1010.4 |
| 20260504031500 | 11 | 191 | 33.8 | 37.0 | 0.00 | 0.00 | 0.00 | 52 | 1010.5 |
| 20260504031000 | 11 | 186 | 32.2 | 37.0 | 0.00 | 0.00 | 0.00 | 51 | 1010.5 |
| 20260504030000 | 11 | 196 | 32.2 | 33.8 | 0.00 | 0.00 | 0.00 | 52 | 1010.5 |
| 20260504025500 | 11 | 198 | 32.2 | 33.8 | 0.00 | 0.00 | 0.00 | 51 | 1010.7 |
| 20260504025001 | 11 | 199 | 32.2 | 33.8 | 0.00 | 0.00 | 0.00 | 51 | 1010.6 |
| 20260504024500 | 11 | 197 | 32.2 | 37.0 | 0.00 | 0.00 | 0.00 | 51 | 1010.8 |
| 20260504024000 | 11 | 199 | 30.6 | 37.0 | 0.00 | 0.00 | 0.00 | 51 | 1010.7 |
| 20260504023500 | 11 | 201 | 30.6 | 32.2 | 0.00 | 0.00 | 0.00 | 51 | 1010.8 |
| 20260504023002 | 11 | 208 | 30.6 | 33.8 | 0.00 | 0.00 | 0.00 | 51 | 1010.8 |
| 20260504022500 | 11 | 212 | 32.2 | 33.8 | 0.00 | 0.00 | 0.00 | 50 | 1010.9 |
| 20260504022000 | 11 | 205 | 33.8 | 37.0 | 0.00 | 0.00 | 0.00 | 50 | 1011.0 |
| 20260504021500 | 11 | 209 | 32.2 | 37.0 | 0.00 | 0.00 | 0.00 | 50 | 1010.8 |
| 20260504021001 | 11 | 219 | 30.6 | 37.0 | 0.00 | 0.00 | 0.00 | 50 | 1010.9 |
| 20260504020501 | 11 | 222 | 32.2 | 37.0 | 0.00 | 0.00 | 0.00 | 49 | 1010.8 |
| 20260504015500 | 11 | 227 | 33.8 | 37.0 | 0.00 | 0.00 | 0.00 | 48 | 1010.9 |
| 20260504015000 | 12 | 224 | 35.4 | 37.0 | 0.00 | 0.00 | 0.00 | 48 | 1010.9 |
| 20260504014500 | 11 | 222 | 35.4 | 38.6 | 0.00 | 0.00 | 0.00 | 48 | 1011.0 |
| 20260504013501 | 11 | 225 | 37.0 | 38.6 | 0.00 | 0.00 | 0.00 | 45 | 1011.0 |
| 20260504013000 | 12 | 221 | 38.6 | 41.8 | 0.00 | 0.00 | 0.00 | 46 | 1011.0 |
| 20260504012500 | 12 | 222 | 40.2 | 43.5 | 0.00 | 0.00 | 0.00 | 46 | 1011.0 |
| 20260504012001 | 12 | 225 | 40.2 | 43.5 | 0.00 | 0.00 | 0.00 | 47 | 1010.9 |
| 20260504011501 | 12 | 231 | 38.6 | 43.5 | 0.00 | 0.00 | 0.00 | 47 | 1011.0 |
| 20260504011000 | 12 | 242 | 40.2 | 43.5 | 0.00 | 0.00 | 0.00 | 46 | 1011.0 |
| 20260504010500 | 13 | 239 | 38.6 | 43.5 | 0.00 | 0.00 | 0.00 | 45 | 1011.1 |
| 20260504005501 | 12 | 222 | 37.0 | 40.2 | 0.00 | 0.00 | 0.00 | 44 | 1010.9 |
| 20260504005000 | 12 | 232 | 35.4 | 37.0 | 0.00 | 0.00 | 0.00 | 37 | 1011.1 |
| 20260504004501 | 13 | 247 | 35.4 | 41.8 | 0.00 | 0.00 | 0.00 | 37 | 1010.9 |
| 20260504004001 | 13 | 238 | 37.0 | 45.1 | 0.00 | 0.00 | 0.00 | 38 | 1010.9 |
| 20260504003500 | 13 | 235 | 37.0 | 45.1 | 0.00 | 0.00 | 0.00 | 39 | 1010.9 |
| 20260504003001 | 13 | 243 | 35.4 | 41.8 | 0.00 | 0.00 | 0.00 | 40 | 1010.9 |
| 20260504002500 | 13 | 239 | 38.6 | 43.5 | 0.00 | 0.00 | 0.00 | 40 | 1010.9 |
| 20260504002000 | 13 | 230 | 37.0 | 43.5 | 0.00 | 0.00 | 0.00 | 40 | 1010.8 |
| 20260504001500 | 13 | 225 | 38.6 | 43.5 | 0.00 | 0.00 | 0.00 | 42 | 1010.4 |
| 20260504001001 | 13 | 222 | 40.2 | 43.5 | 0.00 | 0.00 | 0.00 | 45 | 1010.5 |
| 20260504000500 | 13 | 223 | 41.8 | 48.3 | 0.00 | 0.00 | 0.00 | 43 | 1010.5 |
| 20260503235000 | 13 | 225 | 37.0 | 37.0 | 0.00 | 0.00 | 0.00 | 42 | 1010.3 |
| 20260503234500 | 13 | 225 | 35.4 | 37.0 | 0.00 | 0.00 | 0.00 | 42 | 1010.5 |
| 20260503234000 | 13 | 225 | 35.4 | 37.0 | 0.00 | 0.00 | 0.00 | 42 | 1010.3 |
| 20260503233501 | 13 | 225 | 35.4 | 37.0 | 0.00 | 0.00 | 0.00 | 41 | 1010.3 |
| 20260503233001 | 13 | 225 | 37.0 | 40.2 | 0.00 | 0.00 | 0.00 | 41 | 1010.3 |
| 20260503232500 | 13 | 223 | 38.6 | 40.2 | 0.00 | 0.00 | 0.00 | 39 | 1010.3 |
| 20260503232000 | 13 | 222 | 38.6 | 40.2 | 0.00 | 0.00 | 0.00 | 39 | 1010.5 |
| 20260503231459 | 13 | 224 | 38.6 | 43.5 | 0.00 | 0.00 | 0.00 | 38 | 1010.3 |
| 20260503231001 | 13 | 225 | 38.6 | 43.5 | 0.00 | 0.00 | 0.00 | 39 | 1010.4 |
| 20260503230500 | 13 | 225 | 38.6 | 43.5 | 0.00 | 0.00 | 0.00 | 39 | 1010.5 |
| 20260503230000 | 13 | 225 | 38.6 | 43.5 | 0.00 | 0.00 | 0.00 | 38 | 1010.5 |
| 20260503225500 | 13 | 225 | 37.0 | 40.2 | 0.00 | 0.00 | 0.00 | 38 | 1010.4 |
| 20260503225001 | 13 | 225 | 35.4 | 37.0 | 0.00 | 0.00 | 0.00 | 37 | 1010.6 |
| 20260503223959 | 14 | 224 | 37.0 | 38.6 | 0.00 | 0.00 | 0.00 | 37 | 1010.5 |
| 20260503223500 | 14 | 225 | 38.6 | 46.7 | 0.00 | 0.00 | 0.00 | 36 | 1010.5 |
| 20260503222500 | 14 | 224 | 35.4 | 38.6 | 0.00 | 0.00 | 0.00 | 37 | 1010.6 |
| 20260503222001 | 14 | 224 | 37.0 | 40.2 | 0.00 | 0.00 | 0.00 | 37 | 1010.7 |
| 20260503221500 | 14 | 225 | 35.4 | 40.2 | 0.00 | 0.00 | 0.00 | 37 | 1010.7 |
| 20260503220500 | 14 | 225 | 33.8 | 35.4 | 0.00 | 0.00 | 0.00 | 37 | 1010.8 |
| 20260503220000 | 14 | 225 | 33.8 | 37.0 | 0.00 | 0.00 | 0.00 | 37 | 1010.7 |
| 20260503215500 | 14 | 225 | 33.8 | 37.0 | 0.00 | 0.00 | 0.00 | 37 | 1010.7 |
| 20260503214501 | 14 | 223 | 33.8 | 35.4 | 0.00 | 0.00 | 0.00 | 37 | 1010.8 |
| 20260503214000 | 14 | 224 | 35.4 | 40.2 | 0.00 | 0.00 | 0.00 | 37 | 1010.8 |
| 20260503213500 | 13 | 225 | 37.0 | 43.5 | 0.00 | 0.00 | 0.00 | 37 | 1010.8 |
| 20260503213000 | 14 | 224 | 37.0 | 43.5 | 0.00 | 0.00 | 0.00 | 36 | 1010.7 |
| 20260503211501 | 14 | 225 | 37.0 | 38.6 | 0.00 | 0.00 | 0.00 | 36 | 1010.9 |
| 20260503210959 | 14 | 225 | 37.0 | 37.0 | 0.00 | 0.00 | 0.00 | 37 | 1010.8 |
| 20260503210459 | 15 | 225 | 37.0 | 37.0 | 0.00 | 0.00 | 0.00 | 35 | 1010.8 |
| 20260503210000 | 15 | 225 | 35.4 | 37.0 | 0.00 | 0.00 | 0.00 | 35 | 1010.8 |
| 20260503205459 | 15 | 225 | 33.8 | 37.0 | 0.00 | 0.00 | 0.00 | 35 | 1010.8 |
| 20260503205000 | 15 | 222 | 35.4 | 37.0 | 0.00 | 0.00 | 0.00 | 35 | 1010.9 |
| 20260503203500 | 15 | 227 | 33.8 | 35.4 | 0.00 | 0.00 | 0.00 | 35 | 1011.0 |
| 20260503202959 | 15 | 227 | 32.2 | 35.4 | 0.00 | 0.00 | 0.00 | 36 | 1011.2 |
| 20260503202500 | 15 | 224 | 30.6 | 33.8 | 0.00 | 0.00 | 0.00 | 37 | 1011.1 |
| 20260503202000 | 15 | 224 | 32.2 | 37.0 | 0.00 | 0.00 | 0.00 | 37 | 1011.1 |
| 20260503201000 | 15 | 222 | 35.4 | 40.2 | 0.00 | 0.00 | 0.00 | 33 | 1011.2 |
| 20260503200500 | 15 | 225 | 35.4 | 37.0 | 0.00 | 0.00 | 0.00 | 35 | 1011.3 |
| 20260503200000 | 15 | 225 | 33.8 | 37.0 | 0.00 | 0.00 | 0.00 | 35 | 1011.3 |
| 20260503195500 | 15 | 225 | 33.8 | 35.4 | 0.00 | 0.00 | 0.00 | 37 | 1011.4 |
| 20260503195000 | 15 | 225 | 33.8 | 37.0 | 0.00 | 0.00 | 0.00 | 36 | 1011.4 |
| 20260503194500 | 15 | 225 | 33.8 | 37.0 | 0.00 | 0.00 | 0.00 | 35 | 1011.5 |
| 20260503193500 | 15 | 224 | 32.2 | 33.8 | 0.00 | 0.00 | 0.00 | 36 | 1011.6 |
| 20260503193000 | 15 | 224 | 29.0 | 33.8 | 0.00 | 0.00 | 0.00 | 36 | 1011.7 |
| 20260503192459 | 15 | 225 | 29.0 | 32.2 | 0.00 | 0.00 | 0.00 | 36 | 1011.8 |
| 20260503192000 | 15 | 225 | 29.0 | 32.2 | 0.00 | 0.00 | 0.00 | 36 | 1011.8 |
| 20260503191501 | 15 | 224 | 29.0 | 30.6 | 0.00 | 0.00 | 0.00 | 37 | 1011.9 |
| 20260503191000 | 15 | 224 | 29.0 | 30.6 | 0.00 | 0.00 | 0.00 | 38 | 1011.9 |
| 20260503190501 | 14 | 227 | 29.0 | 30.6 | 0.00 | 0.00 | 0.00 | 40 | 1012.1 |
| 20260503190000 | 14 | 226 | 27.4 | 30.6 | 0.00 | 0.00 | 0.00 | 40 | 1012.1 |
| 20260503185500 | 14 | 222 | 24.1 | 27.4 | 0.00 | 0.00 | 0.00 | 42 | 1012.1 |
| 20260503185000 | 13 | 217 | 20.9 | 24.1 | 0.00 | 0.00 | 0.00 | 44 | 1012.2 |
| 20260503184500 | 14 | 213 | 20.9 | 24.1 | 0.00 | 0.00 | 0.00 | 44 | 1012.5 |
| 20260503183959 | 14 | 214 | 20.9 | 24.1 | 0.00 | 0.00 | 0.00 | 42 | 1012.4 |
| 20260503183500 | 14 | 217 | 19.3 | 20.9 | 0.00 | 0.00 | 0.00 | 45 | 1012.6 |
| 20260503182959 | 14 | 218 | 20.9 | 20.9 | 0.00 | 0.00 | 0.00 | 44 | 1012.6 |
| 20260503182500 | 14 | 219 | 20.9 | 24.1 | 0.00 | 0.00 | 0.00 | 43 | 1012.8 |
| 20260503181959 | 14 | 224 | 22.5 | 24.1 | 0.00 | 0.00 | 0.00 | 42 | 1012.9 |
| 20260503181501 | 14 | 224 | 24.1 | 24.1 | 0.00 | 0.00 | 0.00 | 42 | 1013.0 |
| 20260503180959 | 14 | 224 | 24.1 | 24.1 | 0.00 | 0.00 | 0.00 | 42 | 1012.9 |
| 20260503180000 | 14 | 225 | 25.7 | 27.4 | 0.00 | 0.00 | 0.00 | 39 | 1013.0 |
| 20260503175500 | 14 | 225 | 25.7 | 29.0 | 0.00 | 0.00 | 0.00 | 40 | 1013.2 |
| 20260503175001 | 14 | 225 | 27.4 | 30.6 | 0.00 | 0.00 | 0.00 | 40 | 1013.2 |
| 20260503174459 | 13 | 222 | 29.0 | 30.6 | 0.00 | 0.00 | 0.00 | 41 | 1013.2 |
| 20260503173959 | 13 | 223 | 29.0 | 32.2 | 0.00 | 0.00 | 0.00 | 41 | 1013.3 |
| 20260503173500 | 13 | 225 | 29.0 | 33.8 | 0.00 | 0.00 | 0.00 | 40 | 1013.4 |
| 20260503173000 | 13 | 222 | 29.0 | 33.8 | 0.00 | 0.00 | 0.00 | 39 | 1013.6 |
| 20260503172500 | 13 | 219 | 30.6 | 33.8 | 0.00 | 0.00 | 0.00 | 40 | 1013.6 |
| 20260503172001 | 12 | 222 | 32.2 | 35.4 | 0.00 | 0.00 | 0.00 | 39 | 1013.4 |
| 20260503171500 | 12 | 225 | 32.2 | 35.4 | 0.00 | 0.00 | 0.00 | 39 | 1013.5 |
| 20260503170959 | 12 | 225 | 30.6 | 33.8 | 0.00 | 0.00 | 0.00 | 39 | 1013.6 |
| 20260503170500 | 13 | 225 | 30.6 | 32.2 | 0.00 | 0.00 | 0.00 | 37 | 1013.7 |
| 20260503150459 | 11 | 225 | 38.6 | 41.8 | 0.00 | 0.00 | 0.00 | 33 | 1014.7 |
| 20260503130959 | 10 | 248 | 41.8 | 43.5 | 0.00 | 0.00 | 0.00 | 37 | 1014.9 |
| 20260503130459 | 10 | 247 | 41.8 | 43.5 | 0.00 | 0.00 | 0.00 | 35 | 1015.0 |